Other Surface Observations
Issued by NWS

Home | Current Version | Previous Version | Text Only | Print | Product List | Glossary On
Versions: 1 2 3 4 5 6 7 8 9 10 11 12 13 14 15 16 17 18 19 20 21 22 23 24 25 26 27 28 29 30 31 32 33 34 35 36 37 38 39 40 41 42 43 44 45 46 47 48 49 50
192
SXUS52 KTAE 270318
OSOTAE
OSOTAE
North Florida/South Alabama/Southwest Georgia Weather Roundup
National Weather Service Tallahassee Florida
1100 PM EDT THU MAY 26 2016

Note: "fair" indicates few or no clouds below 12,000 feet with no
significant weather and/or obstructions to visibility.

!FLZ017-115-028-034-025-270400
...North Florida...

CITY           SKY/WX    TMP DP  RH WIND       PRES   REMARKS
TALLAHASSEE    PTCLDY    75  65  70 VRB3      30.08S
APALACHICOLA   CLEAR     72  68  87 NE3       30.07S
PERRY          CLEAR     75  56  50 E5        30.11R
CROSS CITY       N/A     74  55  51 E3        30.09R
JACKSONVILLE   CLEAR     66  62  87 NW3       30.13R
$$

!FLZ112-006-005-002-011-270400
...Florida Panhandle...

CITY           SKY/WX    TMP DP  RH WIND       PRES   REMARKS
MARIANNA       CLEAR     76  67  73 S3        30.07S
BONIFAY        NOT AVBL
PANAMA CITY NW FAIR      71  67  87 CALM      30.07S
TYNDALL AFB    CLEAR     70  68  92 CALM      30.08R
TYND DRONE APT FAIR      70  69  96 CALM      30.08R
DE FUNIAK SPR  FAIR      72  71  95 CALM      30.08F
EGLIN AFB      MOCLDY    77  71  81 S6        30.07S
DESTIN         PTCLDY    80  74  81 VRB3      30.07S
HURLBURT       PTCLDY    77  71  81 S7        30.05F
CRESTVIEW      CLEAR     74  70  87 S3        30.09S
PENSACOLA      PTCLDY    77  71  82 S8        30.06R
$$

!ALZ063-066-270400
...South Alabama...

CITY           SKY/WX    TMP DP  RH WIND       PRES   REMARKS
DOTHAN         PTCLDY    77  66  68 SW5       30.11S
OZARK CAIRNS   CLEAR     76  67  74 S6        30.07S
FT RUCKER HELI PTCLDY    75  66  73 S3        30.06S
RUCKER HELI 3  FAIR      77  65  67 SW7       30.09R
RUCKER HELI 2  NOT AVBL
FLORALA APT    PTCLDY    73  68  84 S5        30.09S
ANDALUSIA      CLEAR     78  65  63 CALM      30.07S
TROY           PTCLDY    72  67  84 CALM      30.08R
EUFALA         FAIR      72  65  78 CALM      30.06S
MOBILE         PTCLDY    75  71  87 SE7       30.06R
$$

!GAZ120>161-270400
...Southwest and South Central Georgia...

CITY           SKY/WX    TMP DP  RH WIND       PRES   REMARKS
THOMASVILLE    FAIR      73  63  68 SE5       30.12R
BAINBRIDGE     CLEAR     73  64  73 CALM      30.08S
MOODY AFB      CLEAR     73  57  57 E6        30.11R
VALDOSTA       CLEAR     74  57  55 SE6       30.11R
MOULTRIE       CLEAR     73  63  68 E3        30.12R
BLAKELY        CLEAR     73  68  83 CALM      30.08S
ALBANY         CLEAR     74  63  68 S3        30.10S
TIFTON         FAIR      74  61  62 SE8       30.11S
FITZGERALD     FAIR      75  58  56 SE6       30.14S
CORDELE        FAIR      80  63  54 S5        30.11R
AMERICUS       FAIR      70  63  78 CALM      30.10S
HOMERVILLE     FAIR      72  61  68 SE5       30.13S
$$

!GMZ750-755-770-775-270400
...Coastal and Buoy Obs...

STATION/POSITION TIME  TEMP    WIND        PRES    VSBY  WAVE
                       AIR SEA DIR/SP/G                  HT/PER
                 (UTC) (F)     (DEG/KT/KT) (MB)    (MI)  (FT/S)
KEATON BEACH     0300   76      70/  5/  5 1019.1R
CEDAR KEY        0300   78      80/ 12/ 14 1019.4R
C TOWER          0300   76      CALM  /  1 1018.9F
APALACHICOLA BUO 0250   78 78  360/ 10/ 12 1017.9R         2/ 5
PANAMA CITY BUOY 0250   78 80  110/  6/  6 1018.3S         3/ 5
MOBILE BUOY      0300   78 79  130/ 12/ 16 1017.5R
ORANGE BCH AL BU 0250   79 81  150/ 10/ 14 1016.9S         2/ 5
$$




USA.gov is the U.S. government's official web portal to all federal, state and local government web resources and services.